Theta_e
333 333 334 334 334 335 336 336 336 337 336 335 335 334 334 335 335 335 335 335 334 332 333 334 334 334 333 332 332 332 332 332 331 331 333 332 331 332 332 331 331 331 330 330 330 330 330 330 329 330 329 329 329 328 328 328 328 328 328 328 327 327 327
331 332 333 333 334 335 337 336 335 337 337 335 336 335 334 335 335 336 336 335 334 333 333 334 334 333 333 333 334 334 332 332 332 331 332 333 332 332 332 331 331 331 331 330 330 329 330 330 329 329 329 328 327 327 327 327 327 327 328 327 326 326 325
331 332 332 333 334 335 335 335 334 336 336 335 335 335 334 333 334 335 335 335 334 332 331 331 332 333 333 333 334 335 334 332 333 332 331 333 333 331 331 331 330 331 330 330 330 329 329 330 329 329 329 328 327 326 326 326 326 327 327 326 325 324 322
331 332 332 330 332 333 334 334 333 334 334 334 334 333 332 332 331 332 331 331 331 329 328 328 329 331 333 333 334 335 335 334 333 332 332 333 332 331 331 331 330 330 330 330 330 329 329 330 329 328 328 327 327 326 325 326 326 326 326 325 322 320 318
331 332 331 329 331 334 333 332 332 332 332 332 332 332 332 331 330 330 330 329 329 328 328 327 327 328 329 331 333 334 334 332 331 332 332 332 332 332 331 331 330 330 330 330 330 330 329 329 329 329 328 327 326 325 325 325 326 326 326 322 318 315 313
331 331 331 331 333 334 333 332 332 332 331 331 332 331 331 331 330 329 329 329 328 328 328 327 327 327 327 328 330 332 334 331 330 331 331 330 331 331 330 329 329 330 330 330 329 329 329 329 329 328 327 326 326 325 324 325 326 326 323 319 316 313 311
332 331 330 332 333 332 331 332 331 331 331 330 330 330 330 329 329 329 329 328 328 329 329 329 328 328 328 328 328 330 332 333 332 332 331 330 330 330 329 329 330 329 328 328 328 328 329 328 328 327 327 326 326 325 324 324 324 323 320 317 315 313 311
332 331 331 331 332 330 331 331 330 330 330 330 330 330 329 329 328 329 328 328 328 328 329 329 329 328 328 327 327 328 329 331 333 333 332 333 333 332 331 330 329 328 328 328 328 328 328 328 327 327 326 325 325 325 324 322 322 321 318 316 315 314 312
332 332 331 331 331 330 330 331 330 329 329 328 329 329 329 329 328 327 327 326 327 328 328 328 327 327 326 325 326 327 326 328 331 331 331 334 335 334 333 331 329 328 328 328 328 328 328 328 327 327 327 326 326 325 323 322 321 319 316 315 315 314 312
332 332 331 332 333 331 330 330 329 328 328 328 328 328 328 328 327 326 326 326 327 328 327 327 326 326 326 325 325 326 326 326 327 327 328 332 334 334 333 331 330 329 328 328 327 328 328 327 328 327 327 326 326 325 324 322 320 318 315 315 315 314 312
333 332 332 333 332 331 330 329 328 328 328 327 328 328 327 327 327 326 325 324 326 327 326 325 325 324 324 325 325 325 326 326 326 326 326 329 332 333 332 331 330 329 329 328 327 328 327 326 326 326 326 325 325 325 324 322 320 317 315 315 315 314 312
333 331 331 332 331 330 329 328 328 328 328 327 328 327 328 327 326 325 324 323 325 326 326 324 323 323 323 324 324 324 325 324 324 325 325 326 329 332 332 331 330 329 329 329 329 329 328 325 323 324 323 323 324 324 323 321 320 318 316 315 315 314 311
331 330 330 331 331 329 329 328 328 328 328 328 328 328 328 327 326 324 323 322 324 325 325 323 322 322 322 322 322 322 322 322 321 323 324 324 326 329 331 330 329 330 330 329 329 327 325 323 321 321 321 321 322 322 321 320 320 318 316 314 314 313 312
329 329 329 329 329 328 328 327 327 327 327 327 328 327 327 327 325 323 321 321 321 323 323 322 321 321 321 321 320 320 319 319 320 322 323 324 324 326 327 326 328 331 329 327 326 324 322 321 320 319 319 320 321 321 320 320 319 317 315 314 313 313 312
329 328 328 328 328 328 327 327 326 326 326 326 327 327 327 326 323 322 320 319 319 320 321 321 321 320 320 320 319 318 318 319 321 322 323 323 323 324 324 324 327 328 326 324 324 322 321 320 319 317 317 318 319 319 319 319 318 317 316 314 313 313 312
329 329 328 328 327 327 327 327 326 326 325 326 327 327 326 324 323 321 319 318 318 318 319 320 321 320 320 319 318 318 319 320 322 323 322 322 322 323 323 323 325 326 324 323 322 321 320 319 318 316 316 316 318 317 317 318 318 318 317 314 313 313 312
328 328 327 327 327 327 327 327 326 324 324 326 326 326 325 323 322 320 318 317 317 317 318 319 319 318 318 318 318 318 319 320 321 321 321 321 321 321 322 322 323 323 323 323 321 320 320 319 318 317 316 316 316 316 316 316 316 317 317 315 313 313 312
329 328 327 326 326 326 326 326 325 323 323 324 325 325 324 323 322 319 317 316 317 317 318 318 317 317 317 317 318 318 318 319 320 320 320 320 320 320 320 321 321 322 322 322 322 321 320 320 318 317 317 316 316 316 316 315 315 316 316 315 314 313 313
328 328 328 327 326 325 326 325 324 323 323 323 324 324 324 323 321 318 316 316 317 316 316 316 316 316 316 317 317 317 318 319 319 319 319 319 319 319 319 320 320 321 322 322 321 321 321 320 320 319 318 317 316 316 317 316 316 316 316 316 315 315 314
328 328 328 328 326 325 325 325 324 323 323 323 323 323 323 322 320 317 316 316 316 316 316 316 317 317 317 318 318 318 318 318 318 318 318 318 319 319 319 319 319 320 320 321 321 321 321 321 321 320 320 319 319 318 317 317 316 316 316 317 316 316 315
328 328 328 328 327 325 325 325 324 323 323 323 322 321 322 322 320 317 316 316 316 316 317 317 318 319 319 320 320 320 320 320 320 320 320 320 319 319 319 318 318 319 319 320 320 320 321 321 321 320 320 319 319 319 319 318 317 316 316 317 316 316 316
327 326 327 328 327 325 325 324 323 322 322 322 320 320 321 321 319 318 316 316 317 317 318 320 321 322 322 322 322 322 322 322 322 322 323 323 322 322 321 320 320 321 320 318 318 318 319 319 319 320 320 320 320 319 319 319 319 318 317 317 317 317 317
324 324 325 326 326 325 324 324 323 322 321 321 320 320 320 319 319 318 317 317 319 318 320 322 322 322 323 323 323 323 323 323 323 323 324 324 324 324 323 323 323 322 319 317 317 316 316 316 315 316 318 320 321 321 320 319 319 318 318 318 317 317 317
322 322 323 324 325 325 324 324 323 322 321 321 320 320 319 319 319 319 318 318 320 320 323 323 321 321 322 323 324 324 324 323 324 325 324 324 325 324 324 324 323 321 318 318 317 316 315 316 316 315 315 317 319 321 321 321 321 320 319 319 318 318 317
322 321 322 322 323 324 324 323 323 322 322 322 320 320 320 319 320 319 318 320 321 322 323 321 318 319 320 320 322 324 324 324 324 324 324 324 324 324 324 324 325 323 321 320 320 320 318 317 316 316 316 316 317 318 318 319 321 322 322 321 320 319 318
320 319 320 320 321 322 322 323 323 324 323 322 321 321 320 320 320 319 319 320 321 322 322 319 316 318 318 319 320 321 323 324 324 323 323 323 324 324 324 324 323 324 324 322 321 322 322 321 320 318 317 316 316 317 316 316 317 319 320 321 321 321 319
320 319 318 317 319 320 320 319 320 320 321 322 322 322 322 322 321 320 320 320 321 322 322 319 317 318 318 318 319 319 321 323 324 324 324 324 324 324 323 322 320 321 322 322 322 322 322 323 324 322 320 318 317 317 318 317 316 316 316 318 320 322 321
321 320 319 317 317 318 318 319 319 319 318 319 320 320 321 322 322 322 322 321 322 323 321 319 318 318 318 318 318 318 320 322 324 324 324 325 325 324 323 321 319 318 319 321 322 323 322 322 323 324 323 322 321 320 320 320 319 317 315 316 318 321 322
322 321 320 319 319 319 320 320 320 319 318 318 318 318 318 319 321 322 321 321 322 322 320 317 318 317 317 318 317 317 319 322 322 322 323 323 323 324 324 322 319 317 317 318 321 324 323 322 321 322 323 323 322 321 322 322 321 319 317 316 315 317 322
321 321 321 321 321 321 321 320 320 319 319 319 318 318 317 318 320 322 322 322 323 322 320 317 317 316 316 315 315 316 319 321 320 320 321 321 320 321 323 322 321 318 317 319 322 324 324 322 320 320 321 322 322 322 323 323 321 319 318 316 314 314 318
320 320 321 321 322 322 322 322 321 321 321 320 320 321 321 321 322 322 322 323 322 322 321 320 318 317 317 317 316 317 320 322 321 321 322 321 320 321 322 322 321 320 319 320 322 323 323 322 320 320 320 321 321 321 321 321 320 319 318 316 315 314 315
319 319 319 320 320 320 321 322 322 322 321 320 321 322 322 322 321 321 321 321 321 321 321 320 319 319 318 318 318 318 319 321 322 322 322 321 321 321 321 321 321 321 321 321 320 321 321 320 319 319 320 321 321 320 319 318 316 315 315 313 313 313 313
316 317 318 318 318 318 319 320 320 320 321 321 320 320 321 320 320 320 320 319 319 320 321 319 318 319 319 318 318 318 318 320 321 321 321 321 320 320 320 319 319 320 321 319 318 319 318 317 317 318 319 321 321 319 318 316 314 313 312 311 310 310 309
313 313 314 314 315 316 317 317 318 319 320 320 320 320 320 320 318 318 318 318 317 318 318 317 316 316 317 317 318 317 317 319 320 319 319 320 320 320 320 319 319 319 320 319 318 317 316 315 316 317 317 319 319 318 317 316 314 313 312 310 309 308 307
309 310 311 312 312 313 314 314 315 316 317 317 318 318 319 319 318 318 318 317 317 315 313 312 311 312 313 314 315 316 316 317 317 317 319 320 320 320 320 319 319 319 319 317 317 316 316 315 316 316 316 316 316 317 316 314 313 312 310 309 308 307 306
306 307 308 309 310 310 311 311 312 313 314 315 315 315 316 316 316 316 316 316 317 315 312 310 308 307 308 310 311 312 313 314 314 314 315 317 318 318 318 318 318 317 317 316 315 315 315 315 315 315 316 316 315 314 314 313 312 311 310 308 307 306 307
304 305 305 306 306 308 308 309 309 310 311 312 312 312 312 313 313 314 314 314 315 314 314 313 309 306 305 306 307 307 308 309 310 311 312 314 315 315 315 315 314 314 314 314 314 314 314 314 314 314 315 315 314 313 312 312 311 310 309 308 307 307 307
Wind_Speed
12 12 13 13 13 12 10 10 10 9 10 9 9 8 7 7 8 8 9 7 7 9 9 7 8 8 8 10 8 6 6 6 6 6 3 5 5 4 4 3 3 5 7 9 9 6 5 4 6 7 8 10 10 10 9 9 9 8 9 9 11 13 13
13 14 14 12 12 10 9 9 9 8 9 9 9 8 8 8 7 7 8 7 7 8 7 6 7 8 8 10 8 5 6 7 6 5 4 5 4 4 5 5 5 5 5 8 10 8 6 6 6 6 7 9 9 9 8 8 9 10 10 10 11 13 13
14 15 14 11 11 10 9 9 9 9 9 9 9 9 8 8 8 7 8 7 6 6 5 4 5 6 7 9 8 6 6 7 5 3 4 5 4 4 5 5 5 5 4 5 8 9 8 6 6 7 8 9 8 7 6 7 9 9 11 10 10 12 12
12 12 11 10 11 10 10 10 9 10 10 10 10 9 9 8 7 7 7 7 6 5 4 4 5 5 6 7 8 7 6 6 5 4 5 6 6 5 6 5 4 3 2 2 4 7 7 6 7 7 8 10 10 8 6 7 9 10 11 10 10 12 12
12 11 8 10 12 12 12 12 10 10 10 10 10 10 10 9 8 7 6 6 6 4 4 4 4 5 5 5 6 7 7 7 7 7 6 7 7 6 6 5 4 3 1 1 1 4 6 6 7 8 9 10 9 9 8 8 10 10 10 10 11 13 13
13 12 9 10 13 12 13 13 11 10 10 10 10 10 10 9 8 7 6 5 5 3 3 3 3 4 4 5 5 6 7 7 8 8 7 8 8 6 6 6 5 4 3 2 2 4 6 8 8 8 10 10 9 10 9 10 10 10 10 11 12 13 14
15 13 11 12 14 14 14 13 12 11 11 10 10 10 10 9 8 7 6 5 4 3 3 3 3 3 3 4 5 5 6 5 6 7 7 8 8 7 6 6 4 4 4 4 6 6 6 9 11 10 11 10 10 10 9 11 12 11 11 11 11 13 14
17 16 13 13 15 15 14 14 12 11 11 11 10 10 10 9 9 7 6 5 4 3 3 4 4 4 3 4 5 5 5 5 5 5 6 6 7 7 6 5 5 6 5 5 8 8 7 9 12 13 12 9 8 8 8 11 12 12 12 12 11 12 13
18 18 16 16 16 14 14 13 12 11 11 11 11 11 10 9 9 7 6 5 4 4 5 5 5 5 4 4 6 5 6 5 4 4 5 5 5 6 5 5 6 7 5 5 8 8 7 7 10 12 12 10 8 7 6 8 10 11 12 12 12 12 13
19 17 17 18 16 14 13 12 11 11 12 13 12 11 10 9 8 7 7 6 5 5 6 5 5 6 5 5 6 5 6 6 5 4 3 4 5 6 5 5 6 6 6 7 9 9 8 8 9 10 10 9 9 7 6 6 7 10 12 11 12 13 13
19 18 17 16 15 14 12 11 11 11 12 13 13 12 11 10 9 8 7 7 7 7 6 6 6 6 5 5 5 5 6 6 5 4 3 3 4 6 6 6 5 6 6 8 9 9 9 9 10 11 9 9 9 8 8 7 7 10 13 11 12 13 14
17 16 16 15 15 14 12 12 11 11 11 12 12 12 11 10 10 8 8 8 8 7 7 6 6 6 5 5 5 5 5 5 4 4 4 4 4 5 7 6 6 7 7 7 8 8 9 9 9 10 8 9 11 11 11 10 7 10 13 12 12 14 16
15 14 15 16 15 13 12 12 11 11 11 11 11 11 11 11 10 9 8 8 8 7 7 6 6 6 5 6 5 5 4 4 4 4 4 4 4 4 6 6 7 8 8 8 9 9 9 8 7 7 7 8 10 11 12 10 8 10 11 12 13 14 16
14 14 15 16 15 13 12 12 11 11 10 10 11 11 11 11 10 9 8 8 8 8 7 7 7 6 6 6 6 6 6 5 4 5 5 5 5 5 6 6 7 8 9 10 10 9 9 7 6 7 7 7 9 10 12 11 10 11 10 11 13 14 15
15 14 15 15 14 13 12 12 11 11 10 10 11 11 11 11 9 8 8 8 8 8 8 9 8 7 7 7 7 6 6 6 6 6 6 6 7 6 6 6 7 8 9 10 10 9 9 7 7 7 6 7 9 10 12 13 12 12 11 12 13 14 15
15 15 15 14 14 13 12 12 11 10 10 10 11 11 11 10 9 8 8 8 8 9 9 9 8 8 8 8 8 7 6 7 7 7 7 7 7 6 7 7 8 8 9 9 8 8 8 7 7 7 6 7 8 7 10 13 13 12 12 12 13 14 15
13 16 16 14 14 14 13 12 11 10 11 11 11 11 10 10 9 8 8 9 9 9 10 10 8 8 9 9 9 8 8 8 8 8 7 7 7 7 7 8 9 9 9 9 8 7 8 6 5 6 6 7 8 6 6 9 10 11 12 12 12 13 14
10 14 15 14 15 15 13 13 11 11 11 11 12 11 10 10 9 8 9 9 10 10 10 10 9 9 9 9 9 9 9 9 8 7 7 7 7 7 6 7 7 8 8 8 8 7 8 7 5 5 6 6 8 7 6 7 9 11 11 12 12 12 13
9 11 13 13 14 14 14 13 12 11 11 11 11 10 10 10 9 9 10 10 11 11 11 10 10 10 10 10 9 9 9 8 8 8 7 7 7 7 6 6 6 7 7 7 7 6 7 7 5 5 6 6 7 8 7 7 9 11 11 11 12 12 13
8 10 11 11 12 12 13 13 12 11 11 11 11 11 10 10 9 9 10 11 12 12 12 11 11 11 11 10 10 9 9 8 8 8 7 7 7 6 6 6 6 7 7 7 7 6 6 6 5 5 5 5 5 7 8 9 9 11 12 11 12 13 13
12 12 11 11 12 12 12 12 11 11 10 10 11 11 11 10 10 9 10 11 12 12 11 11 11 10 10 10 10 9 9 8 8 8 7 7 7 7 7 7 7 7 7 7 8 7 7 7 7 7 7 8 8 8 9 10 10 11 12 13 13 13 13
15 14 11 9 11 11 11 11 10 10 10 10 10 10 11 11 10 10 10 11 11 11 11 10 10 9 9 10 10 9 9 8 8 8 7 7 7 7 7 7 7 7 8 8 8 8 7 8 7 7 7 8 10 11 12 12 12 12 12 13 14 14 14
15 12 10 10 9 10 11 10 9 10 9 9 10 10 11 12 11 10 11 11 10 11 9 8 9 8 7 9 9 8 8 8 7 7 7 7 7 6 7 7 6 8 9 9 9 8 8 8 7 8 7 6 7 10 12 13 14 15 15 15 15 16 16
14 13 13 13 12 10 10 10 9 9 9 9 9 8 9 12 11 10 11 11 9 9 5 4 8 8 5 7 7 5 7 7 6 7 7 7 7 7 8 8 8 9 9 8 8 7 7 6 6 8 9 9 8 9 10 11 12 13 14 15 16 17 17
14 14 14 14 14 13 11 10 9 9 8 7 7 8 9 10 10 9 10 10 9 7 4 4 8 8 5 5 4 3 4 6 6 7 7 8 8 9 9 9 9 10 10 10 9 7 6 6 6 7 9 10 12 12 13 14 14 12 12 13 15 16 18
16 16 14 13 14 15 13 11 10 11 10 7 5 6 7 9 9 9 9 9 8 7 6 6 7 7 5 6 5 4 5 6 6 7 8 8 9 9 7 6 6 7 8 9 9 8 7 7 7 8 9 10 13 14 15 17 18 16 15 14 13 15 18
17 17 15 14 14 15 14 12 11 11 11 9 7 7 6 6 6 6 6 7 7 7 7 6 6 6 6 6 6 6 6 6 7 7 8 9 9 9 10 10 11 12 10 9 9 9 8 7 7 7 8 9 11 14 15 16 18 19 19 16 14 15 17
16 15 15 14 13 14 13 11 9 9 11 11 9 8 7 6 5 4 3 3 4 6 5 4 5 6 7 6 6 6 6 7 8 8 9 10 10 11 12 14 16 14 13 14 15 11 9 7 8 8 9 9 10 12 13 15 17 19 20 18 16 14 15
14 15 14 15 14 13 12 10 9 10 11 11 10 10 8 7 6 5 3 2 3 3 4 5 5 6 6 6 6 6 6 7 8 10 11 12 13 12 11 13 16 16 15 18 18 14 11 8 8 10 11 11 12 12 14 17 20 21 21 21 20 17 14
13 14 13 14 13 12 12 11 10 10 10 10 10 10 10 8 7 6 4 3 3 4 5 6 6 7 6 6 6 6 6 7 9 11 12 12 14 14 13 15 17 16 16 17 15 13 12 10 9 11 13 13 13 13 15 18 21 22 22 22 22 20 17
16 15 13 11 10 10 10 10 9 9 10 10 9 10 10 10 10 8 6 5 4 5 5 5 5 6 7 7 8 8 7 8 9 11 11 12 14 14 14 15 14 14 14 15 12 10 11 11 10 11 13 14 15 15 14 15 18 21 21 20 20 19 17
15 15 14 13 11 9 8 7 8 9 11 11 9 8 9 10 10 8 7 5 4 3 3 4 4 5 6 6 7 8 8 8 9 10 10 12 13 14 15 15 13 11 11 12 11 10 11 12 12 12 12 13 13 14 13 10 12 14 14 13 15 15 14
14 14 14 13 12 12 9 7 6 8 11 11 9 7 7 9 9 7 5 5 5 3 1 3 4 4 4 4 5 5 5 7 9 10 10 11 12 13 14 14 11 9 9 10 11 12 13 13 14 13 12 11 11 13 13 11 10 10 8 7 8 7 7
13 13 12 12 12 12 11 8 6 7 8 8 7 7 8 10 10 9 7 6 6 5 3 2 2 2 1 2 2 2 2 4 8 9 10 10 9 10 10 8 4 6 9 11 12 14 15 15 15 14 13 12 13 14 15 13 12 11 9 8 8 9 8
13 12 11 11 10 10 10 9 8 8 7 7 7 7 7 8 10 11 12 10 8 6 4 4 5 4 4 3 2 3 4 4 6 7 8 9 8 9 8 5 4 7 11 13 15 16 16 16 16 15 14 14 15 15 12 11 10 10 11 11 10 10 9
13 12 11 10 10 9 9 8 7 7 6 6 6 6 5 5 6 8 9 9 9 7 4 4 6 6 6 5 4 2 1 2 4 5 6 8 9 9 7 5 5 8 12 14 16 16 16 16 17 17 15 15 16 16 13 11 11 12 14 14 13 12 11
11 11 11 10 10 9 9 8 7 7 6 5 5 5 4 4 3 3 3 4 5 5 3 3 4 6 7 6 5 5 4 4 4 4 5 7 9 9 8 8 9 11 14 16 16 15 15 15 16 18 17 15 16 16 13 12 13 14 15 15 15 14 13
Wind_Direction
184 189 186 183 187 188 183 182 182 182 184 181 176 178 172 170 174 166 161 166 175 183 183 176 172 175 178 172 172 182 177 172 182 193 182 159 182 205 182 181 183 159 152 161 167 153 137 129 120 111 97 94 87 77 77 78 86 97 97 102 103 96 93
184 183 182 185 185 180 178 182 183 180 179 173 167 169 168 169 171 162 160 167 173 178 180 179 175 176 177 168 164 172 169 165 175 192 186 173 194 204 187 204 213 189 160 158 159 149 141 141 138 135 122 109 90 70 70 84 89 93 97 99 100 100 98
172 175 182 185 177 172 177 182 184 179 171 165 163 162 161 163 165 159 157 160 163 169 175 175 167 170 175 168 163 164 167 171 173 183 188 187 200 197 198 220 223 205 188 167 155 147 153 155 144 149 145 132 108 76 77 103 103 100 104 106 106 105 103
166 171 186 183 169 169 178 185 188 178 163 158 157 152 152 154 151 150 150 147 151 163 169 168 165 171 174 165 162 164 172 177 172 175 187 189 194 200 216 226 223 229 200 176 171 147 150 156 141 140 138 132 122 107 103 114 115 113 111 111 111 107 104
168 164 185 186 173 174 181 187 185 169 156 152 147 142 144 144 140 143 146 144 147 160 162 159 166 174 174 170 167 169 176 179 179 186 191 189 191 197 213 220 226 242 182 136 186 132 129 140 141 139 134 131 126 119 124 126 120 120 118 115 112 109 106
169 163 186 190 178 183 187 182 174 161 152 147 143 141 140 140 141 140 139 139 141 147 148 147 160 164 164 174 182 179 179 183 185 187 190 193 194 193 202 206 212 213 166 123 138 134 126 129 141 143 132 129 128 129 137 134 124 126 125 118 115 114 110
166 168 189 191 181 189 191 177 166 156 147 142 140 139 139 138 136 131 125 126 123 123 128 127 133 141 153 169 176 176 175 180 184 181 182 184 181 180 191 193 185 178 166 152 152 155 144 141 149 147 133 129 132 139 151 142 132 134 130 124 120 115 109
167 166 177 187 184 188 186 168 156 149 140 136 135 133 136 134 127 125 121 117 118 122 123 122 121 126 142 150 144 151 159 163 172 168 163 164 163 166 176 174 163 163 171 165 154 158 165 158 155 148 142 142 137 139 154 149 143 136 130 128 122 114 112
166 161 170 185 183 180 174 156 146 143 135 132 132 130 134 134 131 135 133 127 135 137 129 132 134 131 133 130 131 142 153 155 157 149 142 144 149 154 159 158 156 156 162 155 146 150 154 151 151 152 155 159 150 144 152 155 149 137 133 135 126 121 122
166 165 174 180 171 164 160 148 140 139 135 133 133 135 140 141 141 142 138 137 141 140 138 140 139 137 136 131 135 141 138 139 142 139 137 139 144 150 154 154 148 149 156 149 143 144 137 137 148 155 164 165 157 153 151 151 150 145 148 147 135 132 131
170 172 176 168 155 153 151 141 137 135 135 136 137 144 148 147 147 144 139 144 145 142 145 145 139 141 142 135 135 135 130 133 137 137 144 146 148 152 155 155 143 142 151 146 144 143 138 144 152 155 167 166 155 158 155 148 150 152 155 154 146 143 139
171 172 168 157 151 152 147 140 140 137 137 140 143 151 154 152 151 147 143 147 150 148 146 143 142 145 144 138 140 140 135 141 145 142 148 156 161 162 158 156 146 146 153 148 143 140 137 148 156 158 168 165 158 164 165 161 156 153 157 157 152 150 148
171 168 161 155 153 154 150 146 146 144 143 144 146 152 155 155 153 149 148 150 151 154 151 148 149 147 145 148 152 149 146 159 159 149 152 155 159 162 156 153 148 151 157 149 141 139 142 150 157 158 161 161 162 166 171 170 149 140 156 159 155 156 158
168 163 157 156 157 158 156 152 151 151 150 149 150 154 156 155 153 151 152 154 155 157 157 156 156 153 151 153 149 146 153 164 153 141 138 137 140 143 145 149 151 153 153 145 141 144 149 151 151 151 151 153 161 171 177 172 147 140 154 159 159 163 165
162 159 156 157 159 158 155 154 155 154 155 153 153 157 158 154 155 155 155 157 158 159 161 161 161 159 154 150 147 147 152 148 134 131 130 127 129 133 135 137 141 147 148 146 149 150 151 157 153 147 149 152 160 177 178 164 152 154 158 161 169 169 170
160 155 153 155 156 155 153 153 154 155 155 154 154 158 157 154 156 157 157 160 160 162 163 162 163 162 155 153 152 148 144 136 130 135 137 133 131 128 127 127 132 143 147 149 157 154 155 176 170 146 141 143 150 175 174 156 155 164 163 167 176 172 174
160 155 155 155 154 155 154 151 153 156 153 153 156 157 156 158 161 159 159 161 162 163 162 162 164 161 157 158 156 149 144 142 141 145 142 136 135 132 129 132 139 149 152 155 165 162 163 193 196 154 144 142 146 158 160 153 160 170 170 174 182 179 178
164 158 155 156 155 154 153 153 156 156 152 154 160 159 160 164 163 162 164 164 163 161 161 163 161 157 157 158 156 152 150 149 146 142 136 131 132 132 135 141 144 149 155 162 171 173 175 193 204 171 159 156 155 154 155 164 169 170 173 177 184 186 180
169 166 154 154 158 155 152 155 158 156 154 157 161 163 167 169 168 168 169 167 163 160 161 162 157 154 155 155 156 153 149 149 146 141 141 138 135 135 139 144 145 149 159 168 173 179 181 188 197 185 180 182 173 164 172 190 184 174 179 184 185 188 184
149 161 156 153 157 156 154 157 159 158 158 159 162 168 172 172 174 174 172 169 164 160 161 160 155 155 155 153 155 153 150 152 149 149 153 148 144 148 149 149 152 158 167 174 179 189 190 191 203 205 201 209 205 184 188 208 207 188 187 191 191 193 190
128 135 146 158 164 161 154 157 159 157 161 161 163 172 175 174 177 176 173 171 164 161 162 160 159 161 160 158 156 155 158 158 153 156 160 154 155 163 165 165 168 172 179 181 181 185 187 193 206 212 211 218 224 218 208 216 223 212 203 203 201 201 198
131 125 122 136 159 161 153 156 159 156 162 165 166 174 175 174 178 176 174 172 165 165 166 161 162 163 156 159 164 161 162 163 161 163 163 159 163 170 171 171 177 184 190 192 192 193 195 203 213 217 219 219 220 223 223 223 225 224 219 215 210 208 209
136 132 120 117 137 154 152 151 152 154 162 165 168 176 176 174 178 177 175 173 167 168 169 163 169 167 142 147 162 167 170 171 170 173 175 173 176 184 182 180 193 202 200 200 204 208 212 221 232 238 246 250 233 226 229 229 227 227 225 223 218 213 215
133 134 131 124 125 136 146 152 155 158 162 165 167 173 177 176 178 179 177 173 167 168 173 180 185 184 155 143 151 164 179 185 182 182 190 192 194 199 198 197 204 207 206 204 205 211 220 228 240 247 255 264 259 247 246 248 246 241 236 233 229 220 218
126 127 127 126 125 123 129 142 151 145 143 155 165 170 178 177 175 180 179 171 166 168 174 184 186 190 190 182 179 188 201 203 201 203 209 211 214 216 215 215 212 209 207 204 203 211 226 237 248 252 255 259 259 257 257 256 257 261 260 254 250 242 231
133 137 137 134 131 126 118 117 122 121 119 123 138 155 168 171 172 180 180 173 170 168 170 177 181 190 207 213 214 223 231 230 223 223 226 227 230 233 238 250 260 257 237 212 203 207 219 237 255 262 262 260 258 257 257 257 256 256 257 256 260 261 251
136 142 148 144 139 139 136 129 127 130 131 130 120 111 118 139 158 169 176 179 170 154 159 176 190 203 212 220 225 229 243 254 249 243 244 245 247 255 264 267 274 285 285 258 232 217 213 225 241 258 267 262 256 255 255 258 259 256 255 254 257 262 260
139 145 157 156 147 145 146 144 145 146 147 149 143 127 121 128 131 124 137 158 138 131 150 180 201 212 215 223 231 233 246 260 261 258 260 261 264 270 272 265 261 266 270 266 255 233 216 227 235 240 250 249 247 249 248 249 251 252 253 252 252 261 265
132 138 149 154 151 147 147 149 154 153 152 155 159 160 159 148 128 114 115 112 114 149 191 201 206 217 221 225 232 238 250 260 263 264 266 269 271 271 265 261 265 265 260 263 261 245 234 247 254 249 251 250 248 245 240 242 247 252 254 252 248 250 256
100 112 125 137 142 143 142 143 146 146 144 148 157 166 167 153 127 116 123 124 135 177 199 202 207 215 218 225 231 234 246 258 261 263 265 268 272 273 265 261 264 264 260 264 266 257 255 264 268 264 262 260 257 250 240 241 248 253 256 256 253 248 248
85 92 99 108 117 127 136 140 143 146 148 151 155 156 152 142 133 133 142 145 147 170 195 210 216 217 219 226 228 227 239 258 261 261 266 269 272 276 276 272 262 250 254 266 268 263 263 267 269 270 269 267 266 264 255 247 248 254 256 256 255 250 244
86 88 90 92 96 104 122 135 139 149 160 162 156 149 149 151 154 159 166 167 154 160 206 228 226 228 232 236 239 240 247 261 266 268 274 280 280 278 280 284 276 259 261 273 271 261 261 267 270 269 269 268 266 269 271 258 248 254 258 256 256 253 245
86 88 91 94 93 93 101 111 124 147 163 161 150 148 152 151 151 156 170 182 173 159 214 241 225 223 230 236 250 257 263 278 285 284 284 288 291 291 294 298 293 277 272 275 271 264 263 267 269 268 270 274 270 267 265 250 241 250 250 243 242 231 220
73 77 83 90 93 94 96 95 103 128 141 137 135 147 149 141 139 144 156 169 169 166 181 198 174 157 166 202 223 212 222 274 290 292 292 292 291 295 303 305 285 268 279 285 284 278 271 268 267 265 264 263 262 261 254 242 242 248 233 215 208 193 184
55 58 62 72 80 85 87 84 84 94 98 94 99 116 132 137 138 140 141 139 133 130 122 96 90 88 87 89 105 152 194 244 278 289 296 303 303 302 307 307 280 277 288 294 293 288 281 276 272 268 262 256 255 255 248 236 232 222 203 191 185 178 175
45 46 46 52 59 63 67 71 73 75 79 86 92 92 97 110 120 127 134 132 123 118 106 75 62 58 60 63 63 81 182 278 305 304 303 316 324 324 327 330 307 293 295 299 298 294 290 285 278 272 267 257 252 251 245 233 221 205 195 186 171 166 171
40 41 40 43 47 48 48 53 59 57 51 55 68 75 70 68 76 93 107 111 112 115 117 100 57 36 33 32 25 24 14 346 337 330 316 316 321 323 326 325 315 305 300 299 300 299 297 293 284 276 269 256 247 245 239 227 213 198 193 189 178 175 182